Wallops Island, VA

12:31 PM EDT on June 29, 2017 (GMT -0400)
Wallops Flight Facility

Weather History for KWAL - November, 2012

Change the Weather History Date:

Tuesday, November 13, 2012

  Actual Average Record
Temperature  
Mean Temperature 53 °F 51 °F  
Max Temperature 63 °F 60 °F 76 °F (1985)
Min Temperature 43 °F 42 °F 27 °F (1996)
Degree Days  
Heating Degree Days 12    
Month to date heating degree days 209  
Since 1 July heating degree days 377  
Cooling Degree Days 0    
Month to date cooling degree days 0  
Year to date cooling degree days 1616  
Moisture  
Dew Point 43 °F    
Average Humidity 75    
Maximum Humidity 84    
Minimum Humidity 65    
Precipitation  
Precipitation 0.12 in 0.09 in 0.82 in (2008)
Month to date precipitation 0.49 1.24  
Year to date precipitation 45.11 35.78  
Sea Level Pressure  
Sea Level Pressure 30.31 in    
Wind  
Wind Speed 10 mph (North)    
Max Wind Speed 18 mph    
Max Gust Speed 28 mph    
Visibility 9 miles    
Events Rain    
T = Trace of Precipitation, MM = Missing Value Source: NWS Daily Summary

Daily Weather History Graph

Daily Weather History Graph

Search for Another Location

Airport or City:

Trip Planner

Search our weather history database for the weather conditions in past years. The results will help you decide how hot, cold, wet, or windy it might be!

Date:

Astronomy

Nov. 13, 2012 Rise Set
Actual Time 6:40 AM EST 4:51 PM EST
Civil Twilight 6:12 AM EST 5:19 PM EST
Nautical Twilight 5:41 AM EST 5:50 PM EST
Astronomical Twilight 5:10 AM EST 6:22 PM EST
Moon 6:15 AM EST (11/13) 4:42 PM EST (11/13)
Length of Visible Light 11h 06m
Length of Day
10h 10m
Waning Crescent, 0% of the Moon is Illuminated
Nov 13
Waning Crescent
Nov 13
New
Nov 20
First Quarter
Nov 28
Full
Dec 6
Last Quarter

Hourly Weather History & Observations

Time (EST) Temp. Windchill Dew Point Humidity Pressure Visibility Wind Dir Wind Speed Gust Speed Precip Events Conditions
12:54 AM 60.1 °F - 55.0 °F 83% 30.20 in 10.0 mi SSW 9.2 mph - N/A   Mostly Cloudy
1:54 AM 61.0 °F - 55.9 °F 83% 30.20 in 10.0 mi SSW 10.4 mph - 0.00 in Rain Light Rain
2:54 AM 61.0 °F - 55.9 °F 83% 30.18 in 9.0 mi SW 9.2 mph - 0.00 in   Overcast
3:54 AM 61.0 °F - 55.9 °F 83% 30.17 in 10.0 mi SW 9.2 mph - N/A   Overcast
4:54 AM 61.0 °F - 55.9 °F 83% 30.17 in 10.0 mi South 6.9 mph - N/A   Overcast
5:45 AM 62.1 °F - 55.9 °F 80% 30.19 in 10.0 mi NNW 13.8 mph 18.4 mph N/A   Overcast
5:54 AM 61.0 °F - 55.0 °F 81% 30.20 in 10.0 mi NNW 11.5 mph - N/A   Overcast
6:14 AM 55.9 °F - 48.9 °F 77% 30.22 in 10.0 mi North 11.5 mph 21.9 mph 0.00 in   Overcast
6:23 AM 55.0 °F - 46.9 °F 74% 30.23 in 10.0 mi North 10.4 mph - 0.00 in   Overcast
6:52 AM 53.6 °F - 44.6 °F 72% 30.25 in 10.0 mi North 16.1 mph 26.5 mph 0.00 in   Overcast
6:54 AM 53.1 °F - 45.0 °F 74% 30.24 in 10.0 mi North 16.1 mph 26.5 mph 0.00 in   Overcast
7:07 AM 53.1 °F - 44.1 °F 71% 30.25 in 10.0 mi North 15.0 mph 25.3 mph N/A   Overcast
7:51 AM 51.8 °F - 44.6 °F 76% 30.29 in 10.0 mi North 13.8 mph 20.7 mph N/A   Overcast
7:54 AM 52.0 °F - 44.1 °F 74% 30.28 in 10.0 mi North 12.7 mph 20.7 mph N/A   Overcast
8:54 AM 50.0 °F - 42.1 °F 74% 30.30 in 9.0 mi North 16.1 mph 24.2 mph 0.00 in Rain Light Rain
9:21 AM 48.9 °F - 42.1 °F 77% 30.33 in 2.5 mi North 13.8 mph 19.6 mph 0.02 in Rain Light Rain
9:36 AM 48.0 °F - 43.0 °F 83% 30.33 in 3.0 mi North 10.4 mph - 0.03 in Rain Light Rain
9:51 AM 48.2 °F - 42.8 °F 82% 30.34 in 3.0 mi North 10.4 mph 19.6 mph 0.03 in Rain Light Rain
9:54 AM 48.0 °F - 42.1 °F 80% 30.34 in 2.5 mi North 11.5 mph - 0.04 in Rain Light Rain
10:07 AM 48.0 °F - 42.1 °F 80% 30.35 in 2.0 mi North 11.5 mph - 0.01 in Rain Light Rain
10:12 AM 48.0 °F - 42.1 °F 80% 30.35 in 3.0 mi North 12.7 mph 20.7 mph 0.02 in Rain Light Rain
10:32 AM 46.9 °F - 39.9 °F 77% 30.36 in 10.0 mi North 16.1 mph 24.2 mph 0.02 in Rain Light Rain
10:54 AM 46.9 °F - 39.9 °F 77% 30.35 in 3.0 mi North 12.7 mph 24.2 mph 0.02 in Rain Rain
11:07 AM 46.9 °F - 39.9 °F 77% 30.36 in 6.0 mi North 12.7 mph 26.5 mph 0.01 in Rain Light Rain
11:32 AM 46.0 °F 41.0 °F 39.0 °F 76% 30.34 in 10.0 mi North 10.4 mph - 0.01 in   Overcast
11:54 AM 46.0 °F 41.4 °F 39.0 °F 76% 30.33 in 10.0 mi North 9.2 mph - 0.01 in   Overcast
12:11 PM 46.0 °F 40.2 °F 39.0 °F 76% 30.33 in 10.0 mi North 12.7 mph - N/A   Overcast
12:54 PM 46.0 °F 41.4 °F 39.9 °F 79% 30.31 in 9.0 mi North 9.2 mph - 0.00 in Rain Light Rain
1:24 PM 46.0 °F 41.0 °F 39.0 °F 76% 30.32 in 8.0 mi North 10.4 mph - 0.01 in Rain Light Rain
1:33 PM 46.0 °F 41.0 °F 39.0 °F 76% 30.32 in 10.0 mi North 10.4 mph - 0.01 in Rain Light Rain
1:54 PM 46.0 °F 41.4 °F 39.0 °F 76% 30.32 in 10.0 mi North 9.2 mph - 0.01 in Rain Light Rain
2:12 PM 46.0 °F 41.0 °F 37.9 °F 73% 30.32 in 10.0 mi North 10.4 mph - 0.00 in   Overcast
2:22 PM 46.0 °F 41.9 °F 37.9 °F 73% 30.32 in 10.0 mi North 8.1 mph - 0.00 in   Overcast
2:54 PM 46.0 °F 41.9 °F 37.9 °F 73% 30.32 in 10.0 mi North 8.1 mph - 0.00 in   Overcast
3:47 PM 45.0 °F 41.2 °F 37.9 °F 76% 30.34 in 10.0 mi North 6.9 mph - 0.00 in   Overcast
3:54 PM 46.0 °F 42.5 °F 37.9 °F 73% 30.34 in 10.0 mi North 6.9 mph - 0.00 in   Overcast
4:08 PM 45.0 °F 41.2 °F 37.9 °F 76% 30.34 in 10.0 mi North 6.9 mph - 0.00 in Rain Light Rain
4:50 PM 44.6 °F 40.2 °F 37.4 °F 76% 30.34 in 10.0 mi North 8.1 mph - 0.00 in Rain Light Rain
4:54 PM 45.0 °F 40.1 °F 37.0 °F 74% 30.34 in 10.0 mi North 9.2 mph - 0.00 in Rain Light Rain
5:54 PM 44.1 °F 39.5 °F 37.9 °F 79% 30.37 in - NNW 8.1 mph - 0.02 in Rain Light Rain
6:54 PM 44.1 °F 38.6 °F 37.0 °F 76% 30.38 in 10.0 mi North 10.4 mph - 0.00 in   Overcast
7:54 PM 43.0 °F 37.7 °F 36.0 °F 76% 30.38 in - North 9.2 mph - 0.02 in Rain Light Rain
8:54 PM 44.1 °F 39.0 °F 36.0 °F 73% 30.40 in 10.0 mi North 9.2 mph - 0.00 in   Overcast
9:54 PM 44.1 °F 39.0 °F 35.1 °F 71% 30.40 in - North 9.2 mph - N/A   Overcast
10:54 PM 44.1 °F 40.1 °F 34.0 °F 68% 30.42 in - NNW 6.9 mph - N/A   Overcast
11:54 PM 44.1 °F 39.0 °F 32.0 °F 63% 30.41 in - North 9.2 mph - N/A   Overcast